Regional Weather Roundup
Issued by NWS

Home | Current Version | Previous Version | Graphics & Text | Print | Product List | Glossary On
Versions: 1 2 3 4 5 6 7 8 9 10 11 12 13 14 15 16 17 18 19 20 21 22 23 24 25 26 27 28 29 30 31 32 33 34 35 36 37 38 39 40 41 42 43 44 45 46 47 48 49 50
000
ASUS43 KIND 022109
RWRIN

WEATHER ROUNDUP FOR INDIANA
NATIONAL WEATHER SERVICE INDIANAPOLIS IN
400 PM EST MON MAR 02 2015

NOTE: "FAIR" INDICATES FEW OR NO CLOUDS BELOW 12,000 FEET WITH NO
SIGNIFICANT WEATHER AND/OR OBSTRUCTIONS TO VISIBILITY.

* - STATION DOES NOT REPORT WEATHER SUCH AS PRECIPITATION OR FOG.

+ - STATION NOT QUALITY CONTROLLED BY THE NATIONAL WEATHER SERVICE.
    USE DATA WITH CAUTION...ESPECIALLY DEWPOINT AND RELATIVE
    HUMIDITY OBSERVATIONS.

INZ001>003-010>013-019-020-022200-
NORTHWEST INDIANA

CITY           SKY/WX    TMP DP  RH WIND       PRES   REMARKS
GARY /AIRPORT/ PTSUNNY   30  16  55 NE8       30.46F WCI  23
KNOX *+          N/A     28   0  29 NW3       30.45F
LA PORTE +     MOSUNNY   30  17  58 SW3       30.46S
MICHIGAN CITY+ MOSUNNY   28  12  50 NW3       30.46F
MONTICELLO +   MOSUNNY   26  17  66 CALM      30.46S
RENSSELAER +   SUNNY     28  21  74 NE3       30.45F
VALPARAISO     MOSUNNY   26  12  55 S7        30.45F WCI  18

$$

LMZ046-743>745-022200-
SOUTHERN LAKE MICHIGAN

STATION/POSITION TIME  TEMP WIND        PRES
                       AIR  DIR/SP/G
                 (UTC) (F)  (DEG/KT/KT) (MB)
MICHIGAN CITY    2100   31  330/  3/  4   N/A

$$

INZ004-005-014>016-021>024-022200-
NORTH CENTRAL INDIANA

CITY           SKY/WX    TMP DP  RH WIND       PRES   REMARKS
ELKHART        SUNNY     30  10  43 W6        30.45F WCI  24
GOSHEN         SUNNY     27  14  58 SW8       30.44F WCI  19
LOGANSPORT +   SUNNY     27  16  63 S3        30.46F
PERU/GRISSOM   SUNNY     27  15  60 SW5       30.44F WCI  21
ROCHESTER +    SUNNY     32  14  47 CALM      30.45F
SOUTH BEND     SUNNY     31  14  49 NW3       30.46S
WARSAW +       SUNNY     30  16  55 NW3       30.45F

$$

INZ006>009-017-018-025>027-022200-
NORTHEAST INDIANA

CITY           SKY/WX    TMP DP  RH WIND       PRES   REMARKS
ANGOLA *+      SUNNY     28  16  59 N3        30.43S
AUBURN +       SUNNY     30  12  47 W5        30.45S WCI  25
FORT WAYNE     MOSUNNY   28  15  58 SW8       30.46F WCI  20
HUNTINGTON +   SUNNY     29   6  38 W3        30.45S

$$

INZ028-029-035-036-043>045-051>053-022200-
WEST CENTRAL INDIANA

CITY           SKY/WX    TMP DP  RH WIND       PRES   REMARKS
CRAWFORDSVL +  MOSUNNY   27  11  52 SE6       30.44S WCI  20
GREENCASTLE +  MOSUNNY   32  12  43 E5        30.44F WCI  27
LAFAYETTE      MOSUNNY   30  16  56 CALM      30.44F
TERRE HAUTE    MOSUNNY   33  15  47 E5        30.44F WCI  29

$$

INZ030>032-037>040-046>048-054>057-064-065-022200-
CENTRAL INDIANA

CITY           SKY/WX    TMP DP  RH WIND       PRES   REMARKS
ANDERSON       SUNNY     28  10  47 CALM      30.45F
CP ATTERBURY + MOSUNNY   32  14  47 CALM      30.46F
COLUMBUS       SUNNY     28  10  47 N5        30.47S WCI  23
FRANKFORT +    MOSUNNY   27  18  68 CALM      30.46F
GREENWOOD *+   MOSUNNY   28  10  47 SE9       30.45F WCI  20
INDIANAPOLIS   PTSUNNY   32  14  47 SE3       30.42F
-EAGLE CREEK   PTSUNNY   31  15  52 NW3       30.42F
KOKOMO *+      MOSUNNY   25  18  74 CALM      30.45F
MARION +       MOSUNNY   25  14  62 CALM      30.46F
MT COMFORT *+  MOSUNNY   28   5  37 E6        30.45F WCI  22
SHELBYVILLE    PTSUNNY   30  15  53 E5        30.45F WCI  25
ZIONSVILLE +   MOSUNNY   29  13  51 N5        30.44F WCI  24

$$

INZ033-034-041-042-049-050-058-059-022200-
EAST CENTRAL INDIANA

CITY           SKY/WX    TMP DP  RH WIND       PRES   REMARKS
MUNCIE         MOSUNNY   28  14  55 CALM      30.44F

$$

INZ060-061-067>069-081>083-085>088-022200-
SOUTHWEST INDIANA

CITY           SKY/WX    TMP DP  RH WIND       PRES   REMARKS
EVANSVILLE     PTSUNNY   38  17  42 E6        30.43F
HUNTINGBURG *+ PTSUNNY   37  18  44 N6        30.43F
WASHINGTON +   MOSUNNY   32  17  54 CALM      30.45S

$$

INZ062-063-066-070>080-084-089>092-022200-
SOUTH CENTRAL AND SOUTHEAST INDIANA

CITY           SKY/WX    TMP DP  RH WIND       PRES   REMARKS
BLOOMINGTON    SUNNY     38  12  34 CALM      30.41F
NORTH VERNON + MOSUNNY   32  14  47 N6        30.45F WCI  26
SEYMOUR +      MOSUNNY   34  16  47 N8        30.45F WCI  27

$$



USA.gov is the U.S. government's official web portal to all federal, state and local government web resources and services.